User: anonymous   Login
Location: Unspecified
(0.0000°N, 0.0000°E)
Time: 19:27:03
(UTC+00:00)
Language:

STARLINK-31020 - Orbit

View from above orbital plane
View from above orbital plane
View from above satellite
View from above satellite

Ground track
Ground track

The orbit is defined by the following mean orbital elements,

1 58509U          26145.40554589 +.00000000 +00000-0 +89352-3 0 00008
2 58509  43.0041  37.0285 0001467 261.0623  99.0062 15.27570093    09
Epoch (UTC): 25 May 2026 09:43:59
Eccentricity: 0.0001467
inclination: 43.0041°
perigee height: 482 km
apogee height: 484 km
right ascension of ascending node: 37.0285°
argument of perigee: 261.0623°
revolutions per day: 15.27570093
mean anomaly at epoch: 99.0062°

The dashed part of the orbit path shows where the satellite is in the earth's shadow,  

DLR